SR1WXZ Weather Reports


time (UTC)temp
C
wind
direction
speed
KPH
gust
KPH
rain 1hr
cm
rain 24hr
cm
rain mn
cm
humidity
%
barometer
mb
20260504150834 18 360 11.3 0.0 0.00 0.00 0.00 59 1012.0
20260504140840 18 310 19.3 0.0 0.00 0.00 0.00 55 1012.0
20260504081541 17 250 16.1 0.0 0.00 0.00 0.00 63 1011.0
20260504080835 17 240 19.3 0.0 0.00 0.00 0.00 63 1011.0
20260504044838 17 250 9.7 0.0 0.00 0.00 0.00 59 1010.0
20260504044540 17 250 9.7 0.0 0.00 0.00 0.00 59 1010.0
20260504043038 17 240 11.3 0.0 0.00 0.00 0.00 59 1010.0
20260504042836 17 240 11.3 0.0 0.00 0.00 0.00 59 1010.0
20260504041541 17 240 11.3 0.0 0.00 0.00 0.00 59 1010.0
20260504040835 17 250 8.0 0.0 0.00 0.00 0.00 55 1010.0
20260504040039 17 250 8.0 0.0 0.00 0.00 0.00 55 1010.0
20260504034837 17 250 8.0 0.0 0.00 0.00 0.00 55 1010.0
20260504034540 17 250 8.0 0.0 0.00 0.00 0.00 55 1010.0
20260504033038 17 240 8.0 0.0 0.00 0.00 0.00 55 1010.0
20260504032835 17 240 8.0 0.0 0.00 0.00 0.00 55 1010.0
20260504031541 17 240 8.0 0.0 0.00 0.00 0.00 55 1010.0
20260504030833 17 220 4.8 0.0 0.00 0.00 0.00 51 1009.0
20260504030039 17 220 4.8 0.0 0.00 0.00 0.00 51 1009.0
20260504024838 17 220 4.8 0.0 0.00 0.00 0.00 51 1009.0
20260504024540 17 220 4.8 0.0 0.00 0.00 0.00 51 1009.0
20260504023038 17 240 8.0 0.0 0.00 0.00 0.00 51 1009.0
20260504022836 17 240 8.0 0.0 0.00 0.00 0.00 51 1009.0
20260504021541 17 240 8.0 0.0 0.00 0.00 0.00 51 1009.0
20260504020835 17 230 4.8 0.0 0.00 0.00 0.00 48 1009.0
20260504020039 17 230 4.8 0.0 0.00 0.00 0.00 48 1009.0
20260504014838 17 230 4.8 0.0 0.00 0.00 0.00 48 1009.0
20260504014540 17 230 4.8 0.0 0.00 0.00 0.00 48 1009.0
20260504013039 17 210 8.0 0.0 0.00 0.00 0.00 48 1009.0
20260504012837 17 210 8.0 0.0 0.00 0.00 0.00 48 1009.0
20260504011541 17 210 8.0 0.0 0.00 0.00 0.00 48 1009.0
20260504010835 17 190 4.8 0.0 0.00 0.00 0.00 48 1009.0
20260504010039 17 190 4.8 0.0 0.00 0.00 0.00 48 1009.0
20260504004838 17 190 4.8 0.0 0.00 0.00 0.00 48 1009.0
20260504004540 17 190 4.8 0.0 0.00 0.00 0.00 48 1009.0
20260504003038 12 130 4.8 0.0 0.00 0.00 0.00 71 1009.0
20260504002836 12 130 4.8 0.0 0.00 0.00 0.00 71 1009.0
20260504001541 12 130 4.8 0.0 0.00 0.00 0.00 71 1009.0
20260504000834 12 100 4.8 0.0 0.00 0.00 0.00 71 1009.0
20260504000039 12 100 4.8 0.0 0.00 0.00 0.00 71 1009.0
20260503234837 12 100 4.8 0.0 0.00 0.00 0.00 71 1009.0
20260503234539 12 100 4.8 0.0 0.00 0.00 0.00 71 1009.0
20260503233038 15 0.0 0.0 0.00 0.00 0.00 62 1009.0
20260503232836 15 0.0 0.0 0.00 0.00 0.00 62 1009.0
20260503231541 15 0.0 0.0 0.00 0.00 0.00 62 1009.0
20260503230834 15 0.0 0.0 0.00 0.00 0.00 62 1010.0
20260503230039 15 0.0 0.0 0.00 0.00 0.00 62 1010.0
20260503224836 15 0.0 0.0 0.00 0.00 0.00 62 1010.0
20260503224539 15 0.0 0.0 0.00 0.00 0.00 62 1010.0
20260503223038 16 0.0 0.0 0.00 0.00 0.00 58 1009.0
20260503222835 16 0.0 0.0 0.00 0.00 0.00 58 1009.0
20260503221547 16 0.0 0.0 0.00 0.00 0.00 58 1009.0
20260503220833 15 110 3.2 0.0 0.00 0.00 0.00 62 1009.0
20260503220039 15 110 3.2 0.0 0.00 0.00 0.00 62 1009.0
20260503214842 15 110 3.2 0.0 0.00 0.00 0.00 62 1009.0
20260503214540 15 110 3.2 0.0 0.00 0.00 0.00 62 1009.0
20260503213038 16 120 8.0 0.0 0.00 0.00 0.00 58 1009.0
20260503212841 16 120 8.0 0.0 0.00 0.00 0.00 58 1009.0
20260503211541 16 120 8.0 0.0 0.00 0.00 0.00 58 1009.0
20260503210839 16 120 4.8 0.0 0.00 0.00 0.00 58 1009.0
20260503210039 16 120 4.8 0.0 0.00 0.00 0.00 58 1009.0
20260503204837 16 120 4.8 0.0 0.00 0.00 0.00 58 1009.0
20260503204540 16 120 4.8 0.0 0.00 0.00 0.00 58 1009.0
20260503203038 17 120 3.2 0.0 0.00 0.00 0.00 51 1009.0
20260503202835 17 120 3.2 0.0 0.00 0.00 0.00 51 1009.0
20260503201540 17 120 3.2 0.0 0.00 0.00 0.00 51 1009.0
20260503200833 17 120 4.8 0.0 0.00 0.00 0.00 51 1009.0
20260503200039 17 120 4.8 0.0 0.00 0.00 0.00 51 1009.0
20260503194836 17 120 4.8 0.0 0.00 0.00 0.00 51 1009.0
20260503194539 17 120 4.8 0.0 0.00 0.00 0.00 51 1009.0
20260503193038 18 90 3.2 0.0 0.00 0.00 0.00 48 1009.0
20260503192835 18 90 3.2 0.0 0.00 0.00 0.00 48 1009.0
20260503191545 18 90 3.2 0.0 0.00 0.00 0.00 48 1009.0
20260503190833 21 100 3.2 0.0 0.00 0.00 0.00 40 1009.0
20260503190219 21 100 3.2 0.0 0.00 0.00 0.00 40 1009.0
20260503190038 21 100 3.2 0.0 0.00 0.00 0.00 40 1009.0
20260503184539 21 100 3.2 0.0 0.00 0.00 0.00 40 1009.0
20260503184218 22 270 8.0 0.0 0.00 0.00 0.00 31 1009.0
20260503183038 22 270 8.0 0.0 0.00 0.00 0.00 31 1009.0
20260503181540 22 270 8.0 0.0 0.00 0.00 0.00 31 1009.0
20260503180833 25 270 12.9 0.0 0.00 0.00 0.00 27 1009.0
20260503180040 25 270 12.9 0.0 0.00 0.00 0.00 27 1009.0
20260503174836 25 270 12.9 0.0 0.00 0.00 0.00 27 1009.0
20260503174539 25 270 12.9 0.0 0.00 0.00 0.00 27 1009.0
20260503173038 26 260 11.3 0.0 0.00 0.00 0.00 29 1009.0
20260503172835 26 260 11.3 0.0 0.00 0.00 0.00 29 1009.0
20260503171540 26 260 11.3 0.0 0.00 0.00 0.00 29 1009.0
20260503170833 26 250 12.9 0.0 0.00 0.00 0.00 27 1009.0